Weather History for Argentia, NL

Change the Weather History Date:

Wednesday, September 4, 2013

  Actual Average Record
Temperature  
Mean Temperature 65 °F -  
Max Temperature 74 °F - - ()
Min Temperature 56 °F - - ()
Growing Degree Days 15 (Base 50)    
Moisture  
Dew Point 63 °F    
Average Humidity 91    
Maximum Humidity 96    
Minimum Humidity 82    
Precipitation  
Precipitation 0.51 in - - ()
Sea Level Pressure  
Sea Level Pressure 29.94 in    
Wind  
Wind Speed 21 mph ()    
Max Wind Speed 26 mph    
Max Gust Speed 34 mph    
T = Trace of Precipitation, MM = Missing Value Source: Averaged Metar Reports

Daily Weather History Graph

Daily Weather History Graph

Search for Another Location

Airport:

Trip Planner

Search our weather history database for the weather conditions in past years. The results will help you decide how hot, cold, wet, or windy it might be!

Date:

Astronomy

Sep. 04, 2013 Rise Set
Actual Time 6:29 AM NDT 7:39 PM NDT
Civil Twilight 5:57 AM NDT 8:11 PM NDT
Nautical Twilight 5:19 AM NDT 8:48 PM NDT
Astronomical Twilight 4:39 AM NDT 9:29 PM NDT
Moon 5:35 AM NDT (9/4) 6:54 PM NDT (9/4)
Length of Visible Light 14h 13m
Length of Day
13h 10m
Waning Crescent, 1% of the Moon is Illuminated
Sep 4
Waning Crescent
Sep 5
New
Sep 12
First Quarter
Sep 19
Full
Sep 27
Last Quarter

Hourly Weather History & Observations

Time (NDT) Temp. Dew Point Humidity Pressure Visibility Wind Dir Wind Speed Gust Speed Precip Events Conditions
12:30 AM 57 °F 54 °F 86% 30.12 in - SE 24.2 mph - -  
12:30 AM 57.2 °F 54.0 °F 89% 30.12 in - SE 24.2 mph 31.1 mph N/A   Unknown
1:30 AM 57.6 °F 54.3 °F 89% 30.09 in - SE 25.3 mph 33.4 mph N/A   Unknown
2:30 AM 57.6 °F 54.7 °F 90% 30.08 in - SE 25.3 mph 31.1 mph N/A   Unknown
3:30 AM 58 °F 56 °F 89% 30.06 in - SE 23.0 mph - -  
3:30 AM 58.1 °F 55.6 °F 91% 30.06 in - SE 23.0 mph 29.9 mph N/A   Unknown
4:30 AM 58.6 °F 56.5 °F 93% 30.04 in - SE 23.0 mph - N/A   Unknown
5:30 AM 60.3 °F 58.3 °F 93% 30.02 in - SE 20.7 mph 26.5 mph N/A   Unknown
6:30 AM 62 °F 60 °F 90% 30.00 in - SSE 23.0 mph - -  
6:30 AM 61.7 °F 59.9 °F 94% 30.00 in - SSE 23.0 mph 32.2 mph N/A   Unknown
7:30 AM 63.9 °F 61.9 °F 93% 29.99 in - SSE 20.7 mph 29.9 mph N/A   Unknown
8:30 AM 65.5 °F 62.6 °F 90% 29.97 in - SSE 20.7 mph 27.6 mph N/A   Unknown
9:30 AM 68 °F 64 °F 84% 29.97 in - South 23.0 mph - -  
9:30 AM 67.8 °F 64.2 °F 88% 29.97 in - South 23.0 mph 31.1 mph N/A   Unknown
10:30 AM 68.2 °F 64.8 °F 89% 29.96 in - South 23.0 mph 31.1 mph N/A   Unknown
11:30 AM 70.2 °F 66.0 °F 87% 29.94 in - South 21.9 mph 29.9 mph N/A   Unknown
12:30 PM 72 °F 68 °F 82% 29.91 in - South 20.7 mph - -  
12:30 PM 72.0 °F 67.6 °F 86% 29.91 in - South 20.7 mph 27.6 mph N/A   Unknown
1:30 PM 72.0 °F 67.3 °F 85% 29.89 in - South 24.2 mph 32.2 mph N/A   Unknown
2:30 PM 69.1 °F 66.9 °F 93% 29.88 in - South 23.0 mph 28.8 mph 0.12 in   Unknown
3:30 PM 69 °F 67 °F 93% 29.87 in - SSW 23.0 mph - -  
3:30 PM 69.3 °F 67.5 °F 94% 29.87 in - SSW 23.0 mph 31.1 mph 0.20 in   Unknown
4:30 PM 69.4 °F 67.6 °F 94% 29.86 in - South 18.4 mph 26.5 mph N/A   Unknown
5:30 PM 69.6 °F 68.0 °F 95% 29.85 in - South 17.3 mph - 0.09 in   Unknown
6:30 PM 69 °F 67 °F 92% 29.83 in - South 18.4 mph - -  
6:30 PM 69.1 °F 67.3 °F 94% 29.83 in - South 18.4 mph 25.3 mph N/A   Unknown
7:30 PM 69.6 °F 67.8 °F 94% 29.82 in - South 18.4 mph 25.3 mph N/A   Unknown
8:30 PM 68.9 °F 67.3 °F 95% 29.81 in - SSW 24.2 mph 29.9 mph 0.06 in   Unknown
9:30 PM 66 °F 65 °F 94% 29.81 in - SSW 26.5 mph - -  
9:30 PM 66.0 °F 64.8 °F 96% 29.81 in - SSW 26.5 mph 34.5 mph 0.11 in   Unknown
10:30 PM 66.4 °F 65.3 °F 96% 29.80 in - SSW 26.5 mph 33.4 mph N/A   Unknown
11:30 PM 65.3 °F 64.2 °F 96% 29.81 in - SSW 23.0 mph - N/A   Unknown